This demonstration page uses our WeatherBlox Daily Observations layout. Learn more.

Left ArrowRight Arrow

53.62937, 11.41316

Hourly Observations for July 18, 2016

Temp ( °F °C ) Dew Point ( °F °C ) Humidity (%) Winds ( mph kmh ) Pressure ( in mb ) Visibility ( mi km ) Precip ( " mm )
6:20 am 06:20 Cloudy 59 15 55 13 88 88 W 8 13 30.06 1018 30 48 N/A
6:50 am 06:50 Cloudy 59 15 55 13 88 88 W 9 15 30.06 1018 30 48 N/A
7:20 am 07:20 Cloudy 59 15 55 13 88 88 W 10 17 30.06 1018 30 48 N/A
7:50 am 07:50 Cloudy with Drizzle 59 15 55 13 88 88 W 8 13 30.09 1019 4 6 N/A
8:20 am 08:20 Cloudy with Drizzle 57 14 55 13 94 94 W 8 13 30.09 1019 5 8 N/A
8:50 am 08:50 Cloudy 57 14 55 13 94 94 W 8 13 30.09 1019 6 9 N/A
9:20 am 09:20 Cloudy 59 15 57 14 94 94 W 10 17 30.09 1019 30 48 N/A
9:50 am 09:50 Mostly Cloudy 61 16 57 14 88 88 W 9 15 30.09 1019 30 48 N/A
10:20 am 10:20 Mostly Cloudy 64 18 57 14 78 78 W 13 20 30.09 1019 30 48 N/A
10:50 am 10:50 Mostly Cloudy 63 17 55 13 77 77 W 12 19 30.09 1019 30 48 N/A
11:20 am 11:20 Mostly Cloudy 63 17 55 13 77 77 W 10 17 30.12 1020 30 48 N/A
11:50 am 11:50 Cloudy 63 17 55 13 77 77 W 8 13 30.12 1020 30 48 N/A
12:20 pm 12:20 Mostly Cloudy 61 16 55 13 83 83 W 14 22 30.12 1020 30 48 N/A
12:50 pm 12:50 Mostly Cloudy 63 17 55 13 77 77 W 14 22 30.12 1020 30 48 N/A
1:20 pm 13:20 Mostly Cloudy 64 18 55 13 73 73 W 9 15 30.12 1020 30 48 N/A
1:50 pm 13:50 Mostly Cloudy 64 18 55 13 73 73 W 9 15 30.12 1020 30 48 N/A
2:20 pm 14:20 Mostly Cloudy 64 18 55 13 73 73 WNW 9 15 30.12 1020 30 48 N/A
2:50 pm 14:50 Cloudy 64 18 57 14 78 78 W 8 13 30.12 1020 30 48 N/A
3:20 pm 15:20 Cloudy 64 18 57 14 78 78 WSW 8 13 30.12 1020 30 48 N/A
3:50 pm 15:50 Cloudy 66 19 57 14 73 73 WSW 6 9 30.12 1020 30 48 N/A
4:20 pm 16:20 Mostly Cloudy 68 20 59 15 73 73 WSW 8 13 30.12 1020 30 48 N/A
4:50 pm 16:50 Mostly Cloudy 68 20 57 14 69 69 W 9 15 30.09 1019 30 48 N/A
5:20 pm 17:20 Mostly Cloudy 70 21 57 14 64 64 W 10 17 30.09 1019 30 48 N/A
5:50 pm 17:50 Mostly Cloudy 70 21 59 15 69 69 W 8 13 30.09 1019 30 48 N/A
6:20 pm 18:20 Cloudy 70 21 55 13 60 60 W 12 19 30.09 1019 30 48 N/A
6:50 pm 18:50 Mostly Cloudy 70 21 54 12 57 57 W 13 20 30.09 1019 30 48 N/A

Powered by AerisWeather